Regional Weather Roundup
Issued by NWS

Home | Current Version | Previous Version | Graphics & Text | Print | Product List | Glossary On
Versions: 1 2 3 4 5 6 7 8 9 10 11 12 13 14 15 16 17 18 19 20 21 22 23 24 25 26 27 28 29 30 31 32 33 34 35 36 37 38 39 40 41 42 43 44 45 46 47 48 49 50
000
ASUS45 KPSR 050400
RWRAZ

ARIZONA REGIONAL HOURLY WEATHER ROUNDUP
NATIONAL WEATHER SERVICE PHOENIX AZ
900 PM MST MON MAY 04 2015

NOTE: FAIR INDICATES FEW OR NO CLOUDS BELOW 12,000 FEET WITH NO
SIGNIFICANT WEATHER AND/OR OBSTRUCTIONS TO VISIBILITY.

AZZ001>003-036-050500-
NORTHWEST ARIZONA

CITY           SKY/WX    TMP DP  RH WIND       PRES   REMARKS
KINGMAN        CLOUDY    58  45  62 E8        29.91R
$$

AZZ004>008-015-016-018-050500-
NORTH CENTRAL ARIZONA

CITY           SKY/WX    TMP DP  RH WIND       PRES   REMARKS
GRAND CANYON   CLOUDY    42  39  89 CALM      30.01R
WILLIAMS       CLOUDY    46  43  87 CALM      30.08R
PRESCOTT       MOCLDY    51  43  74 SW5       29.97R
FLAGSTAFF      NOT AVBL
PAYSON         CLOUDY    54  45  71 SE5       30.00R
PAGE           CLOUDY    64  45  49 SE15      29.89R
$$

AZZ009>014-017-050500-
NORTHEAST ARIZONA

CITY           SKY/WX    TMP DP  RH WIND       PRES   REMARKS
WINSLOW        NOT AVBL
SAINT JOHNS    LGT RAIN  47  41  80 S14       30.02R
WINDOW ROCK    CLOUDY    48  43  82 SE8       30.04R
SHOW LOW       LGT RAIN  41  39  93 S14       30.07R
$$

AZZ023-050500-
GREATER PHOENIX AREA

CITY           SKY/WX    TMP DP  RH WIND       PRES   REMARKS
PHOENIX        CLOUDY    69  51  52 SW14      29.85R
DEER VALLEY    CLOUDY    71  48  43 W16       29.86R
SCOTTSDALE     CLOUDY    71  47  42 W10       29.88R
MESA-GATEWAY   MOCLDY    70  46  43 W16       29.89R
CHANDLER       MOCLDY    70  48  46 SW25G31   29.87R
$$

AZZ027-028-050500-
SOUTHWEST MARICOPA COUNTY AND PINAL COUNTY

CITY           SKY/WX    TMP DP  RH WIND       PRES   REMARKS
CASA GRANDE    MOCLDY    68  46  45 NW13G24   29.85S
$$

AZZ503-504-507>509-050500-
SOUTHEAST ARIZONA

CITY           SKY/WX    TMP DP  RH WIND       PRES   REMARKS
TUCSON         LGT RAIN  65  50  58 N14G20    29.94R
NOGALES        MOCLDY    66  46  48 W13G22    29.96R
SAFFORD        MOCLDY    61  46  57 W17       29.89S
$$

AZZ020-021-025-026-031-050500-
SOUTHWEST ARIZONA

CITY           SKY/WX    TMP DP  RH WIND       PRES   REMARKS
YUMA           CLOUDY    77  50  38 E14       29.81R
$$

CAZ031-033-041-043-047-048-061-050500-
SOUTHERN CALIFORNIA

CITY           SKY/WX    TMP DP  RH WIND       PRES   REMARKS
DOWNTOWN L.A.  CLEAR     58  50  75 CALM      29.96R
L.A. AIRPORT   CLEAR     57  50  77 SW9       29.97R
SAN DIEGO      MOCLDY    63  50  62 W6        30.00R
BURBANK        CLEAR     58  48  69 S6        29.95R
ONTARIO        PTCLDY    59  48  67 W10       29.96R
RIVERSIDE      CLEAR     61  49  64 W9        29.96R
PALM SPRINGS   CLEAR     82  26  13 NW13      29.78R
EL CENTRO NAS  PTCLDY    74  47  38 SW24      29.81R
IMPERIAL       CLEAR     74  48  39 W21G31    29.78R
BLYTHE         CLOUDY    70  54  56 NE15G28   29.86R
$$

NVZ020-UTZ003-050500-
SOUTHERN NEVADA-UTAH

CITY           SKY/WX    TMP DP  RH WIND       PRES   REMARKS
LAS VEGAS      NOT AVBL
SALT LAKE CITY MOCLDY    65  41  41 E6        29.86S
$$

NMZ009-TXZ055-050500-
NEW MEXICO-WEST TEXAS

CITY           SKY/WX    TMP DP  RH WIND       PRES   REMARKS
ALBUQUERQUE    CLOUDY    57  47  69 S13G18    29.99R
EL PASO        CLOUDY    70  50  49 N8        29.85R
$$


........................KEY........................
SKY/WX - SKY CONDITION/WEATHER
TMP    - TEMPERATURE IN FAHRENHEIT
DP     - DEW POINT IN FAHRENHEIT
RH     - RELATIVE HUMIDITY IN PERCENT
WIND   - DIRECTION AND SPEED IN MILES PER HOUR (MPH)
VRB    - VARIABLE WIND DIRECTION
PRES   - MEAN SEA LEVEL PRESSURE IN INCHES OF MERCURY
         F - FALLING PRESSURE   R - RISING PRESSURE
         S - STEADY PRESSURE
VSB    - VISIBILITY IN MILES
HX     - HEAT INDEX IN FAHRENHEIT
WCI    - WIND CHILL INDEX IN FAHRENHEIT
TC     - TEMPERATURE IN CELSIUS WHICH IS ALSO KNOWN AS
         TEMPERATURE IN CENTIGRADE
AFB    - AIR FORCE BASE
         LUKE AFB IS LUKE AIR FORCE BASE
         DAVIS-MONTHAN IS DAVIS-MONTHAN AIR FORCE BASE
NAS    - NAVAL AIR STATION
         EL CENTRO NAS IS EL CENTRO NAVAL AIR STATION
N/A    - NOT AVAILABLE




USA.gov is the U.S. government's official web portal to all federal, state and local government web resources and services.